Location: Tauranga
(37.6860°S, 176.1670°E)
Time: 10:39:57
(UTC+12:00)

SJ-6B - Pass Details

Date: 24 January 2019
Orbit: 510 x 582 km, 97.7° (Epoch: 19 April)

Event Time Altitude Azimuth Distance (km) Brightness Sun altitude
Rises 20:56:54 0° 155° (SSE) 2,661 6.4 -4.8°
Reaches altitude 10° 20:59:17 10° 141° (SE) 1,768 5.3 -5.2°
Maximum altitude 21:02:29 25° 84° (E) 1,073 3.8 -5.7°
Drops below altitude 10° 21:05:41 10° 26° (NNE) 1,763 4.9 -6.3°
Sets 21:08:03 0° 13° (NNE) 2,652 5.9 -6.7°
